CW9687 Weather Reports


Display with metric or nautical units.
time (UTC)temp
F
wind
direction
speed
MPH
gust
MPH
rain 1hr
in
rain 24hr
in
rain mn
in
humidity
%
barometer
mb
20260904045556 61 25 0.0 7.0 0.00 0.00 0.00 83 1013.6
20260904045056 61 5 0.0 5.0 0.00 0.00 0.00 83 1013.6
20260904044559 61 48 1.0 4.0 0.00 0.00 0.00 84 1013.6
20260904044055 61 20 0.0 5.0 0.00 0.00 0.00 84 1013.5
20260904043555 61 48 1.0 3.0 0.00 0.00 0.00 84 1013.4
20260904043055 61 58 0.0 2.0 0.00 0.00 0.00 84 1013.5
20260904042556 62 58 0.0 2.0 0.00 0.00 0.00 84 1013.4
20260904042058 62 58 0.0 1.0 0.00 0.00 0.00 84 1013.4
20260904041604 62 58 0.0 2.0 0.00 0.00 0.00 84 1013.3
20260904041054 62 57 0.0 3.0 0.00 0.00 0.00 84 1013.4
20260904040554 62 58 0.0 3.0 0.00 0.00 0.00 84 1013.4
20260904040049 62 33 0.0 0.0 0.00 0.00 0.00 84 1013.2
20260904035548 62 33 0.0 1.0 0.00 0.00 0.00 84 1013.2
20260904035047 62 33 0.0 1.0 0.00 0.00 0.00 84 1013.1
20260904034601 63 32 0.0 4.0 0.00 0.00 0.00 84 1013.0
20260904034050 63 32 0.0 6.0 0.00 0.00 0.00 84 1013.1
20260904033549 63 42 1.0 6.0 0.00 0.00 0.00 84 1012.9
20260904033046 63 77 0.0 4.0 0.00 0.00 0.00 84 1012.8
20260904032547 63 77 0.0 4.0 0.00 0.00 0.00 84 1012.8
20260904032047 63 31 0.0 4.0 0.00 0.00 0.00 84 1012.8
20260904031547 63 23 0.0 3.0 0.00 0.00 0.00 84 1012.8
20260904031046 64 44 0.0 9.0 0.00 0.00 0.00 84 1012.8
20260904030546 64 14 1.0 9.0 0.00 0.00 0.00 84 1012.8
20260904030030 64 16 0.0 5.0 0.00 0.00 0.00 84 1012.7
20260904025529 64 341 1.0 7.0 0.00 0.00 0.00 84 1012.6
20260904025029 64 10 0.0 10.0 0.00 0.00 0.00 84 1012.6
20260904024529 65 27 1.0 10.0 0.00 0.00 0.00 84 1012.5
20260904024028 65 11 3.0 9.0 0.00 0.00 0.00 84 1012.6
20260904023532 65 23 0.0 9.0 0.00 0.00 0.00 84 1012.5
20260904023028 65 25 2.0 9.0 0.00 0.00 0.00 84 1012.4
20260904022528 66 70 0.0 8.0 0.00 0.00 0.00 84 1012.4
20260904022027 66 14 1.0 9.0 0.00 0.00 0.00 84 1012.4
20260904021531 66 31 0.0 7.0 0.00 0.00 0.00 84 1012.3
20260904021028 67 64 0.0 8.0 0.00 0.00 0.00 84 1012.2
20260904020527 67 65 2.0 8.0 0.00 0.00 0.00 85 1012.2
20260904020033 68 339 1.0 8.0 0.00 0.00 0.00 85 1012.2
20260904015520 68 341 2.0 12.0 0.00 0.00 0.00 86 1012.3
20260904015020 68 24 3.0 12.0 0.00 0.00 0.00 86 1012.3
20260904014521 69 17 1.0 11.0 0.00 0.00 0.00 86 1012.2
20260904014021 69 4 2.0 10.0 0.00 0.00 0.00 86 1012.2
20260904013519 69 9 3.0 10.0 0.00 0.00 0.00 86 1012.2
20260904013023 69 67 0.0 12.0 0.00 0.00 0.00 86 1012.3
20260904012520 70 9 2.0 12.0 0.00 0.00 0.00 86 1012.3
20260904012019 70 4 2.0 11.0 0.00 0.00 0.00 85 1012.3
20260904011519 71 55 1.0 10.0 0.00 0.00 0.00 85 1012.4
20260904011017 71 60 1.0 6.0 0.00 0.00 0.00 85 1012.4
20260904010517 71 16 0.0 9.0 0.00 0.00 0.00 84 1012.4
20260904010011 71 51 1.0 9.0 0.00 0.00 0.00 84 1012.4
20260904005510 71 353 3.0 9.0 0.00 0.00 0.00 83 1012.4
20260904005009 72 344 1.0 10.0 0.00 0.00 0.00 83 1012.4
20260904004509 72 50 2.0 16.0 0.00 0.00 0.00 82 1012.4
20260904004009 72 260 5.0 16.0 0.00 0.00 0.00 82 1012.3
20260904003509 73 341 2.0 13.0 0.00 0.00 0.00 81 1012.4
20260904003009 73 2 2.0 13.0 0.00 0.00 0.00 80 1012.3
20260904002508 73 16 2.0 9.0 0.00 0.00 0.00 81 1012.3
20260904002008 73 352 1.0 11.0 0.00 0.00 0.00 80 1012.3
20260904001508 74 7 3.0 11.0 0.00 0.00 0.00 80 1012.3
20260904001007 74 19 3.0 12.0 0.00 0.00 0.00 79 1012.4
20260904000508 74 146 3.0 11.0 0.00 0.00 0.00 79 1012.3
20260904000046 74 56 4.0 16.0 0.00 0.00 0.00 77 1012.4
20260903235545 75 37 5.0 16.0 0.00 0.00 0.00 76 1012.4
20260903235046 75 22 6.0 11.0 0.00 0.00 0.00 76 1012.4
20260903234545 75 67 5.0 11.0 0.00 0.00 0.00 76 1012.4
20260903234044 76 47 3.0 11.0 0.00 0.00 0.00 76 1012.4
20260903233544 76 92 3.0 12.0 0.00 0.00 0.00 76 1012.5
20260903233043 76 13 2.0 12.0 0.00 0.00 0.00 75 1012.5
20260903232543 76 346 4.0 14.0 0.00 0.00 0.00 75 1012.5
20260903232043 76 298 3.0 13.0 0.00 0.00 0.00 75 1012.5
20260903231558 77 79 5.0 14.0 0.00 0.00 0.00 74 1012.6
20260903231042 77 360 2.0 12.0 0.00 0.00 0.00 75 1012.5
20260903230543 77 343 4.0 13.0 0.00 0.00 0.00 76 1012.6
20260903230042 78 2 3.0 13.0 0.00 0.00 0.00 78 1012.6
20260903225542 78 8 2.0 15.0 0.00 0.00 0.00 78 1012.6
20260903225043 78 335 4.0 15.0 0.00 0.00 0.00 79 1012.7
20260903224539 78 289 1.0 11.0 0.00 0.00 0.00 80 1012.7
20260903224042 78 6 2.0 11.0 0.00 0.00 0.00 82 1012.8
20260903223539 78 21 2.0 13.0 0.00 0.00 0.00 82 1012.8
20260903223043 78 10 3.0 13.0 0.00 0.00 0.00 82 1012.8
20260903222536 78 53 0.0 12.0 0.00 0.00 0.00 83 1012.9
20260903222037 78 352 3.0 12.0 0.00 0.00 0.00 82 1012.9
20260903221539 78 12 2.0 9.0 0.00 0.00 0.00 83 1012.8
20260903221035 77 301 5.0 14.0 0.00 0.00 0.00 84 1012.9
20260903220534 77 299 6.0 14.0 0.00 0.00 0.00 84 1013.0
20260903220055 77 310 4.0 13.0 0.00 0.00 0.00 84 1013.2
20260903215535 77 308 4.0 13.0 0.00 0.00 0.00 84 1013.3
20260903215032 77 285 4.0 14.0 0.00 0.00 0.00 84 1013.3
20260903214533 77 305 6.0 14.0 0.00 0.00 0.00 84 1013.4
20260903214030 77 325 6.0 12.0 0.00 0.00 0.00 83 1013.4
20260903213529 77 279 6.0 12.0 0.00 0.00 0.00 83 1013.4
20260903213030 77 296 8.0 12.0 0.00 0.00 0.00 84 1013.4
20260903212527 76 263 5.0 15.0 0.00 0.00 0.00 84 1013.5
20260903212030 76 308 6.0 13.0 0.00 0.00 0.00 84 1013.5
20260903211527 77 274 6.0 13.0 0.00 0.00 0.00 84 1013.4
20260903211025 77 293 6.0 12.0 0.00 0.00 0.00 83 1013.5
20260903210524 77 305 7.0 12.0 0.00 0.00 0.00 84 1013.4
20260903210024 77 296 7.0 15.0 0.00 0.00 0.00 83 1013.6
20260903205522 77 291 7.0 15.0 0.00 0.00 0.00 83 1013.5
20260903205022 76 302 5.0 11.0 0.00 0.00 0.00 83 1013.5
20260903204521 76 310 5.0 11.0 0.00 0.00 0.00 83 1013.5
20260903204019 76 275 5.0 10.0 0.00 0.00 0.00 83 1013.5
20260903203522 75 302 2.0 10.0 0.00 0.00 0.00 83 1013.6
20260903203023 74 317 4.0 10.0 0.00 0.00 0.00 84 1013.6
20260903202514 74 260 4.0 10.0 0.00 0.00 0.00 83 1013.7
20260903202014 74 291 4.0 12.0 0.00 0.00 0.00 84 1013.6
20260903201515 73 291 4.0 14.0 0.00 0.00 0.00 84 1013.7
20260903201012 73 267 5.0 12.0 0.00 0.00 0.00 84 1013.6
20260903200513 73 261 5.0 12.0 0.00 0.00 0.00 83 1013.6
20260903200032 73 270 5.0 11.0 0.00 0.00 0.00 83 1013.7
20260903195509 73 269 6.0 11.0 0.00 0.00 0.00 83 1013.7
20260903195009 73 269 2.0 14.0 0.00 0.00 0.00 83 1013.8
20260903194522 73 279 4.0 14.0 0.00 0.00 0.00 83 1013.9
20260903194005 72 264 3.0 13.0 0.00 0.00 0.00 83 1014.1
20260903193504 72 262 7.0 13.0 0.00 0.00 0.00 83 1014.2
20260903193004 72 256 5.0 11.0 0.00 0.00 0.00 83 1014.2
20260903192502 72 262 5.0 11.0 0.00 0.00 0.00 83 1014.2
20260903192003 72 256 4.0 11.0 0.00 0.00 0.00 83 1014.4
20260903191502 71 251 3.0 10.0 0.00 0.00 0.00 82 1014.3
20260903191100 71 304 4.0 9.0 0.00 0.00 0.00 82 1014.4
20260903190600 71 287 3.0 12.0 0.00 0.00 0.00 82 1014.4
20260903190057 71 263 5.0 10.0 0.00 0.00 0.00 82 1014.6
20260903185557 70 269 5.0 11.0 0.00 0.00 0.00 83 1014.7
20260903185055 70 273 6.0 11.0 0.00 0.00 0.00 82 1014.7
20260903184554 70 238 3.0 11.0 0.00 0.00 0.00 82 1014.9
20260903184054 70 271 6.0 11.0 0.00 0.00 0.00 82 1014.8
20260903183551 70 275 5.0 10.0 0.00 0.00 0.00 82 1014.9
20260903183114 70 287 2.0 12.0 0.00 0.00 0.00 82 1015.0
20260903182549 70 287 5.0 12.0 0.00 0.00 0.00 82 1015.0
20260903182047 70 266 5.0 11.0 0.00 0.00 0.00 82 1015.0
20260903181552 70 273 3.0 10.0 0.00 0.00 0.00 82 1015.0
20260903181044 70 272 4.0 10.0 0.00 0.00 0.00 81 1015.1
20260903180543 69 302 4.0 10.0 0.00 0.00 0.00 81 1015.0
20260903180034 69 298 4.0 10.0 0.00 0.00 0.00 81 1015.0
20260903175524 69 271 4.0 10.0 0.00 0.00 0.00 81 1015.0
20260903175022 69 275 3.0 12.0 0.00 0.00 0.00 81 1014.9
20260903174524 69 277 5.0 10.0 0.00 0.00 0.00 81 1014.9
20260903174019 69 283 5.0 10.0 0.00 0.00 0.00 80 1015.0
20260903173517 69 295 2.0 9.0 0.00 0.00 0.00 80 1015.0
20260903173015 68 269 3.0 9.0 0.00 0.00 0.00 80 1015.0
20260903172515 68 299 2.0 7.0 0.00 0.00 0.00 80 1015.0
20260903172014 68 268 3.0 8.0 0.00 0.00 0.00 80 1015.0
20260903171519 67 285 1.0 8.0 0.00 0.00 0.00 80 1015.0
20260903171011 67 229 1.0 5.0 0.00 0.00 0.00 80 1015.1
20260903170513 67 278 2.0 9.0 0.00 0.00 0.00 80 1015.1
20260903170014 67 274 3.0 9.0 0.00 0.00 0.00 80 1015.2
20260903165508 67 283 3.0 9.0 0.00 0.00 0.00 81 1015.2
20260903165006 67 276 4.0 9.0 0.00 0.00 0.00 80 1015.2
20260903164505 67 273 2.0 7.0 0.00 0.00 0.00 80 1015.2
20260903164103 67 302 2.0 7.0 0.00 0.00 0.00 80 1015.3
20260903163504 67 3 1.0 7.0 0.00 0.00 0.00 80 1015.2
20260903163100 67 331 1.0 7.0 0.00 0.00 0.00 79 1015.3
20260903162559 67 360 0.0 4.0 0.00 0.00 0.00 79 1015.3
20260903162058 66 59 0.0 4.0 0.00 0.00 0.00 79 1015.2
20260903161614 66 13 0.0 4.0 0.00 0.00 0.00 79 1015.4
20260903161055 66 7 0.0 4.0 0.00 0.00 0.00 79 1015.3
20260903160553 65 19 0.0 4.0 0.00 0.00 0.00 79 1015.3
20260903160052 65 38 0.0 4.0 0.00 0.00 0.00 79 1015.3
20260903155551 64 42 0.0 5.0 0.00 0.00 0.00 79 1015.3
20260903155049 64 6 1.0 5.0 0.00 0.00 0.00 79 1015.4
20260903154548 63 50 0.0 4.0 0.00 0.00 0.00 79 1015.3
20260903154046 63 49 0.0 4.0 0.00 0.00 0.00 78 1015.5
20260903153544 62 51 0.0 3.0 0.00 0.00 0.00 79 1015.5
20260903153043 62 62 0.0 4.0 0.00 0.00 0.00 78 1015.5
20260903152544 61 13 1.0 4.0 0.00 0.00 0.00 79 1015.6
20260903152041 60 59 0.0 3.0 0.00 0.00 0.00 79 1015.8
20260903151543 60 75 0.0 2.0 0.00 0.00 0.00 80 1015.7
20260903151040 59 75 0.0 0.0 0.00 0.00 0.00 80 1015.8
20260903150539 58 75 0.0 0.0 0.00 0.00 0.00 80 1015.8
20260903150038 58 75 0.0 0.0 0.00 0.00 0.00 80 1015.8
20260903145537 58 75 0.0 0.0 0.00 0.00 0.00 79 1015.9
20260903145031 58 75 0.0 0.0 0.00 0.00 0.00 79 1015.7
20260903144531 58 75 0.0 0.0 0.00 0.00 0.00 79 1015.8
20260903144032 58 75 0.0 0.0 0.00 0.00 0.00 79 1015.7
20260903143530 58 75 0.0 0.0 0.00 0.00 0.00 80 1015.7
20260903143038 58 75 0.0 0.0 0.00 0.00 0.00 80 1015.7
20260903142532 57 75 0.0 0.0 0.00 0.00 0.00 80 1015.7
20260903142030 57 75 0.0 0.0 0.00 0.00 0.00 81 1015.6
20260903141527 57 75 0.0 0.0 0.00 0.00 0.00 81 1015.5
20260903141028 57 75 0.0 0.0 0.00 0.00 0.00 81 1015.5
20260903140526 56 75 0.0 0.0 0.00 0.00 0.00 81 1015.4
20260903140002 56 75 0.0 0.0 0.00 0.00 0.00 81 1015.4
20260903135503 56 74 0.0 0.0 0.00 0.00 0.00 81 1015.4
20260903135059 56 75 0.0 0.0 0.00 0.00 0.00 81 1015.4
20260903134608 56 75 0.0 0.0 0.00 0.00 0.00 81 1015.3
20260903134058 56 75 0.0 1.0 0.00 0.00 0.00 81 1015.3
20260903133558 56 75 0.0 1.0 0.00 0.00 0.00 81 1015.2
20260903133059 56 75 0.0 2.0 0.00 0.00 0.00 81 1015.2
20260903132557 56 75 0.0 2.0 0.00 0.00 0.00 81 1015.3
20260903132057 56 75 0.0 1.0 0.00 0.00 0.00 81 1015.2
20260903131557 56 75 0.0 2.0 0.00 0.00 0.00 81 1015.2
20260903131056 56 75 0.0 2.0 0.00 0.00 0.00 81 1015.3
20260903130557 56 75 0.0 2.0 0.00 0.00 0.00 81 1015.3
20260903130055 56 75 0.0 3.0 0.00 0.00 0.00 81 1015.2
20260903125556 56 75 0.0 3.0 0.00 0.00 0.00 81 1015.2
20260903125054 56 74 1.0 3.0 0.00 0.00 0.00 81 1015.2
20260903124601 56 66 1.0 3.0 0.00 0.00 0.00 81 1015.2
20260903124055 56 65 0.0 3.0 0.00 0.00 0.00 81 1015.2
20260903123553 56 61 0.0 2.0 0.00 0.00 0.00 81 1015.3
20260903123053 56 61 0.0 0.0 0.00 0.00 0.00 81 1015.2
20260903122553 56 61 0.0 0.0 0.00 0.00 0.00 81 1015.3
20260903122053 56 61 0.0 1.0 0.00 0.00 0.00 81 1015.3
20260903121558 56 61 0.0 1.0 0.00 0.00 0.00 81 1015.3
20260903121052 57 61 0.0 1.0 0.00 0.00 0.00 81 1015.3
20260903120552 57 61 0.0 1.0 0.00 0.00 0.00 81 1015.2
20260903120052 57 61 0.0 0.0 0.00 0.00 0.00 81 1015.3
20260903115551 57 61 0.0 2.0 0.00 0.00 0.00 81 1015.3
20260903115050 57 61 0.0 2.0 0.00 0.00 0.00 81 1015.3
20260903114550 57 60 0.0 5.0 0.00 0.00 0.00 81 1015.4
20260903114049 57 60 0.0 5.0 0.00 0.00 0.00 81 1015.4
20260903113552 57 62 0.0 2.0 0.00 0.00 0.00 81 1015.4
20260903113049 57 62 0.0 3.0 0.00 0.00 0.00 81 1015.5
20260903112552 57 61 0.0 2.0 0.00 0.00 0.00 81 1015.5
20260903112047 57 61 0.0 1.0 0.00 0.00 0.00 81 1015.6
20260903111547 57 61 0.0 3.0 0.00 0.00 0.00 81 1015.6
20260903111047 57 61 0.0 3.0 0.00 0.00 0.00 81 1015.7
20260903110546 57 60 0.0 1.0 0.00 0.00 0.00 81 1015.7
20260903110046 57 60 0.0 0.0 0.00 0.00 0.00 81 1015.7
20260903105545 57 60 0.0 0.0 0.00 0.00 0.00 80 1015.8
20260903105045 57 60 0.0 0.0 0.00 0.00 0.00 81 1015.7
20260903104545 57 60 0.0 0.0 0.00 0.00 0.00 81 1015.7
20260903104043 57 60 0.0 0.0 0.00 0.00 0.00 81 1015.7
20260903103543 57 60 0.0 0.0 0.00 0.00 0.00 80 1015.7
20260903103044 57 60 0.0 0.0 0.00 0.00 0.00 80 1015.7
20260903102542 57 60 0.0 0.0 0.00 0.00 0.00 81 1015.8
20260903102040 57 60 0.0 0.0 0.00 0.00 0.00 81 1015.8
20260903101541 58 60 0.0 0.0 0.00 0.00 0.00 81 1015.8
20260903101041 58 60 0.0 0.0 0.00 0.00 0.00 81 1015.9
20260903100541 58 60 0.0 0.0 0.00 0.00 0.00 81 1015.9
20260903100043 57 60 0.0 0.0 0.00 0.00 0.00 81 1015.9
20260903095539 58 60 0.0 0.0 0.00 0.00 0.00 81 1015.8
20260903095040 58 60 0.0 0.0 0.00 0.00 0.00 81 1015.9
20260903094539 58 60 0.0 0.0 0.00 0.00 0.00 81 1015.9
20260903094039 58 60 0.0 0.0 0.00 0.00 0.00 81 1016.0
20260903093541 58 60 0.0 0.0 0.00 0.00 0.00 81 1015.9
20260903093040 58 60 0.0 2.0 0.00 0.00 0.00 81 1016.0
20260903092537 58 60 0.0 2.0 0.00 0.00 0.00 81 1016.0
20260903092038 58 60 0.0 2.0 0.00 0.00 0.00 81 1016.1
20260903091552 58 60 0.0 2.0 0.00 0.00 0.00 81 1016.1
20260903091039 58 60 0.0 1.0 0.00 0.00 0.00 81 1016.1
20260903090536 58 60 0.0 1.0 0.00 0.00 0.00 81 1016.2
20260903090035 58 60 0.0 4.0 0.00 0.00 0.00 81 1016.1
20260903085536 58 60 0.0 4.0 0.00 0.00 0.00 81 1016.2
20260903085034 58 69 0.0 3.0 0.00 0.00 0.00 81 1016.2
20260903084534 58 69 0.0 3.0 0.00 0.00 0.00 81 1016.2
20260903084035 58 69 0.0 1.0 0.00 0.00 0.00 81 1016.1
20260903083532 58 69 0.0 3.0 0.00 0.00 0.00 81 1016.3
20260903083033 58 69 0.0 3.0 0.00 0.00 0.00 81 1016.4
20260903082531 59 69 0.0 3.0 0.00 0.00 0.00 81 1016.5
20260903082031 59 69 0.0 4.0 0.00 0.00 0.00 81 1016.5
20260903081532 59 69 0.0 4.0 0.00 0.00 0.00 81 1016.3
20260903081029 59 69 0.0 3.0 0.00 0.00 0.00 81 1016.3
20260903080529 59 69 0.0 3.0 0.00 0.00 0.00 81 1016.3
20260903080029 59 69 0.0 3.0 0.00 0.00 0.00 81 1016.4
20260903075529 59 71 0.0 3.0 0.00 0.00 0.00 81 1016.4
20260903075032 59 71 0.0 5.0 0.00 0.00 0.00 81 1016.5
20260903074528 59 64 1.0 5.0 0.00 0.00 0.00 82 1016.4
20260903074028 59 77 0.0 4.0 0.00 0.00 0.00 82 1016.4
20260903073527 59 78 0.0 2.0 0.00 0.00 0.00 82 1016.4
20260903073042 59 78 0.0 2.0 0.00 0.00 0.00 82 1016.4
20260903072525 59 78 0.0 1.0 0.00 0.00 0.00 82 1016.4
20260903072025 60 78 0.0 3.0 0.00 0.00 0.00 82 1016.5
20260903071525 60 79 0.0 2.0 0.00 0.00 0.00 82 1016.6
20260903071024 60 79 0.0 3.0 0.00 0.00 0.00 82 1016.6
20260903070527 60 79 0.0 0.0 0.00 0.00 0.00 82 1016.5
20260903070022 60 79 0.0 0.0 0.00 0.00 0.00 82 1016.5
20260903065522 60 79 0.0 0.0 0.00 0.00 0.00 82 1016.5
20260903065021 60 79 0.0 0.0 0.00 0.00 0.00 82 1016.5
20260903064525 60 79 0.0 0.0 0.00 0.00 0.00 82 1016.5
20260903064021 60 79 0.0 0.0 0.00 0.00 0.00 82 1016.6
20260903063521 61 79 0.0 2.0 0.00 0.00 0.00 82 1016.5
20260903063020 61 79 0.0 2.0 0.00 0.00 0.00 82 1016.4
20260903062522 61 79 0.0 0.0 0.00 0.00 0.00 81 1016.5
20260903062019 61 79 0.0 0.0 0.00 0.00 0.00 82 1016.4
20260903061522 61 79 0.0 2.0 0.00 0.00 0.00 82 1016.4
20260903061024 61 79 0.0 3.0 0.00 0.00 0.00 82 1016.5
20260903060520 61 4 0.0 3.0 0.00 0.00 0.00 82 1016.4
20260903060020 61 351 0.0 6.0 0.00 0.00 0.00 82 1016.4
20260903055520 61 341 1.0 7.0 0.00 0.00 0.00 82 1016.4
20260903055019 62 343 0.0 7.0 0.00 0.00 0.00 82 1016.4
20260903054519 62 51 0.0 5.0 0.00 0.00 0.00 82 1016.5
20260903054022 62 51 0.0 5.0 0.00 0.00 0.00 82 1016.5
20260903053518 62 12 0.0 6.0 0.00 0.00 0.00 82 1016.5
20260903053018 62 7 1.0 5.0 0.00 0.00 0.00 82 1016.5
20260903052518 62 55 0.0 5.0 0.00 0.00 0.00 82 1016.6
20260903052019 62 45 0.0 7.0 0.00 0.00 0.00 82 1016.6
20260903051518 62 20 1.0 7.0 0.00 0.00 0.00 82 1016.6
20260903051017 62 24 1.0 8.0 0.00 0.00 0.00 82 1016.6
20260903050517 62 4 2.0 8.0 0.00 0.00 0.00 82 1016.5
20260903050010 62 7 0.0 6.0 0.00 0.00 0.00 82 1016.6